Stations météo

Publicité
Zugspitze, Allemagne (10961): Température de l'air & dewpoint: 07.12.2018 12:00:00 - 13.12.2018 12:00:00 (CET)Zugspitze, Allemagne (10961): Vitesse du vent & gusts: 07.12.2018 12:00:00 - 13.12.2018 12:00:00 (CET)Zugspitze, Allemagne (10961): Direction du vent: 07.12.2018 12:00:00 - 13.12.2018 12:00:00 (CET)Zugspitze, Allemagne (10961): visibility: 07.12.2018 12:00:00 - 13.12.2018 12:00:00 (CET)Zugspitze, Allemagne (10961): Ensoleillement: 07.12.2018 12:00:00 - 13.12.2018 12:00:00 (CET)
Date & Time tt [°C] td [°C] ff [km/h] ff [knt] fx [km/h] fx [knt] dd vv [km] sd [min]
13.12.2018 12:00:00 - - - - - - - - -
13.12.2018 11:00:00 -16,7 -23,0 30 16 39 21 SSE 51 60
13.12.2018 10:00:00 -17,1 -24,6 30 16 47 26 S 32 60
13.12.2018 09:00:00 -17,3 -23,2 31 17 42 23 S 19 52
13.12.2018 08:00:00 -18,1 -23,5 31 17 42 23 SSE 47 0
13.12.2018 07:00:00 -17,8 -23,9 25 14 38 21 S 64 0
13.12.2018 06:00:00 -17,8 -23,3 27 14 41 22 SSW 75 0
13.12.2018 05:00:00 -18,0 -22,5 27 15 41 22 S 75 0
13.12.2018 04:00:00 -17,6 -22,5 27 14 42 23 SSW 56 0
13.12.2018 03:00:00 -17,5 -22,1 25 13 40 22 S 58 0
13.12.2018 02:00:00 -17,3 -21,6 30 16 40 21 SSW 58 0
13.12.2018 01:00:00 -17,2 -21,6 24 13 32 17 S 73 0
13.12.2018 00:00:00 -17,2 -20,8 25 14 29 16 S 48 0
12.12.2018 23:00:00 -17,2 -20,4 20 11 22 12 S 75 0
12.12.2018 22:00:00 -17,2 -20,3 14 8 29 16 SSE 75 0
12.12.2018 21:00:00 -17,6 -20,1 22 12 31 17 ESE 73 0
12.12.2018 20:00:00 -17,5 -19,6 22 12 29 15 ESE 75 0
12.12.2018 19:00:00 -17,4 -19,5 19 10 23 12 ESE 70 0
12.12.2018 18:00:00 -17,1 -19,5 20 11 29 16 ESE 75 0
12.12.2018 17:00:00 -17,0 -18,8 22 12 27 15 ESE 58 36
12.12.2018 16:00:00 -16,4 -18,8 17 9 24 13 ESE 70 60
12.12.2018 15:00:00 -16,2 -18,3 22 12 27 14 ESE 6 60
12.12.2018 14:00:00 -15,6 -18,1 16 9 22 12 ESE 1,1 60
12.12.2018 13:00:00 -15,6 -18,2 18 10 21 11 ESE 35 60
12.12.2018 12:00:00 -15,2 -17,0 7 4 19 10 ESE 0,3 60
12.12.2018 11:00:00 -16,1 -18,2 7 4 21 11 NNE 6 60
12.12.2018 10:00:00 -16,4 -18,2 12 6 23 12 NNW 4,3 59
12.12.2018 09:00:00 -16,7 -18,5 11 6 22 12 NNW 53 51
12.12.2018 08:00:00 -17,1 -18,4 10 6 24 13 NNW - 0
12.12.2018 07:00:00 -17,1 -18,5 11 6 23 13 NNW - 0
12.12.2018 06:00:00 -17,3 -18,6 9 5 26 14 NNW - 0
12.12.2018 05:00:00 -17,7 -19,1 13 7 31 17 NNW - 0
12.12.2018 04:00:00 -18,4 -19,4 8 5 18 10 NNW - 0
12.12.2018 03:00:00 -18,2 -19,2 9 5 17 9 NNW - 0
12.12.2018 02:00:00 -18,2 -19,5 11 6 22 12 NNW - 0
12.12.2018 01:00:00 -18,1 -19,2 13 7 24 13 NNW - 0
12.12.2018 00:00:00 -18,1 -19,2 13 7 26 14 NNW - 0
11.12.2018 23:00:00 -18,0 -19,4 17 9 28 15 NNW - 0
11.12.2018 22:00:00 -17,9 -19,1 9 5 24 13 NNW - 0
11.12.2018 21:00:00 -17,7 -19,0 12 6 29 16 NNW - 0
11.12.2018 20:00:00 -17,6 -19,0 16 9 28 15 NNW - 0
11.12.2018 19:00:00 -17,6 -18,9 12 7 26 14 NNW - 0
11.12.2018 18:00:00 -17,4 -18,8 14 7 35 19 NNW - 0
11.12.2018 17:00:00 -17,5 -18,9 14 8 34 19 NNW - 0
11.12.2018 16:00:00 -17,1 -18,3 18 10 31 17 NNW - 0
11.12.2018 15:00:00 -16,9 -18,5 14 8 35 19 NNW - 0
11.12.2018 14:00:00 -16,9 -18,5 20 11 35 19 NW - 0
11.12.2018 13:00:00 -17,1 -18,8 21 11 35 19 NNW - 0
11.12.2018 12:00:00 -17,1 -19,0 17 9 34 18 NNW - 0
11.12.2018 11:00:00 -17,2 -19,1 18 10 40 21 NNW - 0
11.12.2018 10:00:00 -17,1 -19,0 19 10 48 26 NNW - 0
11.12.2018 09:00:00 -17,3 -19,1 19 10 34 19 NNW - 0
11.12.2018 08:00:00 -17,4 -19,2 11 6 26 14 NNW - 0
11.12.2018 07:00:00 -17,0 -18,9 15 8 - - NNW - 0
11.12.2018 06:00:00 -17,0 -18,9 14 7 27 15 NNW - 0
11.12.2018 05:00:00 -17,1 -18,2 16 9 36 19 NNW - 0
11.12.2018 04:00:00 -17,2 -18,4 17 9 32 18 NNW - 0
11.12.2018 03:00:00 -16,7 -18,0 15 8 40 22 NNW - 0
11.12.2018 02:00:00 -16,6 -18,3 14 8 44 24 N - 0
11.12.2018 01:00:00 -16,2 -17,9 16 9 47 26 NNW - 0
11.12.2018 00:00:00 -14,9 -16,6 18 10 45 24 NNW - 0
10.12.2018 23:00:00 -14,7 -16,3 18 10 44 24 NNW - 0
10.12.2018 22:00:00 -15,1 -16,8 18 10 43 23 NNW - 0
10.12.2018 21:00:00 -15,0 -16,8 23 12 50 27 NNW - 0
10.12.2018 20:00:00 -14,6 -16,7 21 11 46 25 NNW - 0
10.12.2018 19:00:00 -14,3 -16,0 14 8 42 23 NNW - 0
10.12.2018 18:00:00 -14,6 -16,5 20 11 54 29 NNW - 0
10.12.2018 17:00:00 -15,3 -17,3 24 13 58 32 NNW - 0
10.12.2018 16:00:00 -15,2 -16,1 26 14 50 27 NNW - 0
10.12.2018 15:00:00 -14,7 -15,8 14 8 42 23 NNW - 0
10.12.2018 14:00:00 -14,2 -15,7 26 14 48 26 NNW - 0
10.12.2018 13:00:00 -14,5 -16,1 17 9 37 20 NNW - 0
10.12.2018 12:00:00 -14,7 -16,4 20 11 44 24 NNW - 0
10.12.2018 11:00:00 -14,3 -16,0 24 13 47 25 NW - 0
10.12.2018 10:00:00 -14,2 -15,9 21 12 58 31 NW - 0
10.12.2018 09:00:00 -14,8 -16,6 24 13 51 28 NNW - 0
10.12.2018 08:00:00 -14,3 -15,9 22 12 52 28 NNW - 0
10.12.2018 07:00:00 -13,9 -15,8 21 12 43 23 NNW - 0
10.12.2018 06:00:00 -13,4 -15,0 21 11 47 26 NNW - 0
10.12.2018 05:00:00 -12,7 -12,7 25 14 50 27 NW - 0
10.12.2018 04:00:00 -12,1 -12,5 23 13 51 28 NNW - 0
10.12.2018 03:00:00 -12,1 -13,3 25 14 71 39 NNW - 0
10.12.2018 02:00:00 -12,2 -13,5 23 12 62 34 NNW - 0
10.12.2018 01:00:00 -11,9 -13,3 27 15 57 31 NNW - 0
10.12.2018 00:00:00 -11,3 -12,7 33 18 61 33 NW - 0
09.12.2018 23:00:00 -10,7 -12,0 19 11 51 28 NNW - 0
09.12.2018 22:00:00 -10,4 -11,8 27 15 52 28 NNW - 0
09.12.2018 21:00:00 -10,3 -11,7 21 11 56 30 NNW - 0
09.12.2018 20:00:00 -10,1 -11,5 33 18 77 41 NNW - 0
09.12.2018 19:00:00 -10,3 -11,8 25 14 84 45 NNW - 0
09.12.2018 18:00:00 -10,3 -11,8 36 20 88 48 NW - 0
09.12.2018 17:00:00 -10,5 -12,0 47 26 104 56 NW - 0
09.12.2018 16:00:00 -10,5 -11,0 52 28 99 54 NW - 0
09.12.2018 15:00:00 -10,8 -11,3 44 24 82 45 NW - 0
09.12.2018 14:00:00 -11,1 -11,7 48 26 76 41 NW - 0
09.12.2018 13:00:00 -11,1 -11,5 36 19 79 43 NW - 0
09.12.2018 12:00:00 -11,1 -11,5 33 18 74 40 WNW - 0
09.12.2018 11:00:00 -11,0 -11,5 50 27 108 58 NW - 0
09.12.2018 10:00:00 -10,1 -10,3 40 22 80 43 WNW - 0
09.12.2018 09:00:00 -9,6 -10,5 20 11 78 42 NW - 0
09.12.2018 08:00:00 -9,0 -10,2 46 25 112 60 NW - 0
09.12.2018 07:00:00 -8,8 -10,1 50 27 110 60 NW - 0
09.12.2018 06:00:00 -7,8 -7,9 61 33 143 77 NW - 0
09.12.2018 05:00:00 -7,5 -7,5 64 35 118 64 WSW - 0
09.12.2018 04:00:00 -7,8 -7,8 57 31 139 75 WSW - 0
09.12.2018 03:00:00 -7,8 -7,8 77 42 132 71 WSW - 0
09.12.2018 02:00:00 -8,0 -8,1 45 24 122 66 W - 0
09.12.2018 01:00:00 -7,5 -8,0 66 36 114 62 WSW - 0
09.12.2018 00:00:00 -7,7 -8,5 58 32 102 55 WSW - 0
08.12.2018 23:00:00 -8,1 -9,0 52 28 98 53 WSW - 0
08.12.2018 22:00:00 -9,2 -10,2 54 29 87 47 WSW - 0
08.12.2018 21:00:00 -10,2 -11,4 52 28 101 55 WSW - 0
08.12.2018 20:00:00 -11,0 -12,2 61 33 90 49 WSW - 0
08.12.2018 19:00:00 -10,9 -12,0 52 28 99 54 WSW - 0
08.12.2018 18:00:00 -11,0 -12,1 31 17 82 44 W - 0
08.12.2018 17:00:00 -11,4 -12,7 41 22 88 48 W - 0
08.12.2018 16:00:00 -11,6 -12,9 32 17 87 47 W - 0
08.12.2018 15:00:00 -11,8 -13,1 31 17 87 47 W - 0
08.12.2018 14:00:00 -12,3 -13,8 50 27 100 54 WSW - 0
08.12.2018 13:00:00 -12,9 -14,3 50 27 90 49 WSW - 0
08.12.2018 12:00:00 -13,1 -14,6 59 32 104 56 WSW - 0
08.12.2018 11:00:00 -13,3 -14,9 44 24 89 48 WSW - 0
08.12.2018 10:00:00 -13,7 -15,2 29 16 74 40 W - 0
08.12.2018 09:00:00 -13,5 -14,9 29 16 74 40 WNW - 0
08.12.2018 08:00:00 -13,4 -14,8 31 17 65 35 WNW 8 0
08.12.2018 07:00:00 -13,4 -14,9 29 16 71 38 WNW 0,1 0
08.12.2018 06:00:00 -13,4 -14,8 31 17 77 41 WNW 0,4 0
08.12.2018 05:00:00 -13,0 -14,4 31 17 72 39 WNW 0,1 0
08.12.2018 04:00:00 -12,3 -13,7 35 19 72 39 WNW 7 0
08.12.2018 03:00:00 -11,2 -12,6 38 21 89 48 NW 5 0
08.12.2018 02:00:00 -10,9 -12,4 51 28 109 59 WNW - 0
08.12.2018 01:00:00 -8,6 -9,8 39 21 74 40 W 2,3 0
08.12.2018 00:00:00 -6,2 -6,9 37 20 98 53 W 0,1 0
07.12.2018 23:00:00 -5,8 -6,6 50 27 98 53 WSW 0,1 0
07.12.2018 22:00:00 -5,8 -6,5 35 19 68 37 WSW - 0
07.12.2018 21:00:00 -4,4 -5,2 15 8 65 35 NW 74 0
07.12.2018 20:00:00 -1,7 -4,6 34 19 68 37 WSW 75 0
07.12.2018 19:00:00 -0,8 -3,8 45 25 67 36 WSW 71 0
07.12.2018 18:00:00 -0,6 -3,1 40 21 71 38 SW 75 0
07.12.2018 17:00:00 -0,7 -2,3 45 24 62 34 SW 75 20
07.12.2018 16:00:00 -0,9 -2,2 44 24 63 34 WSW 75 3
07.12.2018 15:00:00 -0,6 -1,8 41 22 74 40 WSW 26 0
07.12.2018 14:00:00 -1,1 -2,8 49 27 69 37 WSW 18 0
07.12.2018 13:00:00 -1,5 -3,1 54 29 74 40 WSW 6 0
07.12.2018 12:00:00 -2,5 -5,1 56 31 76 41 WSW 7 0

tt = Température de l'air
td = dewpoint
ff = Vitesse du vent
fx = gusts
dd = Direction du vent
vv = visibility
sd = Ensoleillement

stations d'obs. à proximité